This is the latest recevied weather packets stored in our database for station/object OE9SAU-10. If no packets are shown the sender has not sent any weather packets the latest 10 day(s).
| Time | Temp. | Humidity | Pressure | Rain* | Wind** | Luminosity | Snow |
|---|---|---|---|---|---|---|---|
| 1777903416 | 27.22° C | 24% | 1014.6 hPa | - | - | - | - |
| 1777902516 | 27.78° C | 27% | 1014.6 hPa | - | - | - | - |
| 1777901616 | 27.78° C | 29% | 1014.7 hPa | - | - | - | - |
| 1777900715 | 27.22° C | 31% | 1014.8 hPa | - | - | - | - |
| 1777899815 | 26.67° C | 30% | 1014.9 hPa | - | - | - | - |
| 1777898915 | 26.11° C | 30% | 1015.1 hPa | - | - | - | - |
| 1777898015 | 25.56° C | 31% | 1015.2 hPa | - | - | - | - |
| 1777897115 | 25° C | 32% | 1015.2 hPa | - | - | - | - |
| 1777896215 | 25° C | 32% | 1015.6 hPa | - | - | - | - |
| 1777895315 | 24.44° C | 34% | 1015.8 hPa | - | - | - | - |
| 1777894415 | 24.44° C | 34% | 1016 hPa | - | - | - | - |
| 1777893515 | 23.89° C | 35% | 1016.1 hPa | - | - | - | - |
| 1777892615 | 23.89° C | 36% | 1016.3 hPa | - | - | - | - |
| 1777891715 | 23.33° C | 36% | 1016.5 hPa | - | - | - | - |
| 1777890815 | 23.33° C | 37% | 1016.7 hPa | - | - | - | - |
| 1777889915 | 22.78° C | 38% | 1017 hPa | - | - | - | - |
| 1777889015 | 21.67° C | 38% | 1017.2 hPa | - | - | - | - |
| 1777888115 | 22.22° C | 40% | 1017.2 hPa | - | - | - | - |
| 1777887215 | 21.67° C | 40% | 1017.4 hPa | - | - | - | - |
| 1777886315 | 21.11° C | 39% | 1017.6 hPa | - | - | - | - |
| 1777885415 | 21.11° C | 40% | 1017.8 hPa | - | - | - | - |
| 1777884515 | 20.56° C | 41% | 1018 hPa | - | - | - | - |
| 1777883614 | 20.56° C | 41% | 1018 hPa | - | - | - | - |
| 1777882714 | 20.56° C | 42% | 1018.1 hPa | - | - | - | - |
| 1777881814 | 20° C | 42% | 1018.3 hPa | - | - | - | - |
* Rain since midnight (hover to see other rain measurements)
** Current wind speed in m/s (hover to see current wind gust speed)